Regional Weather Roundup
Issued by NWS

Home | Current Version | Previous Version | Text Only | Print | Product List | Glossary Off
Versions: 1 2 3 4 5 6 7 8 9 10 11 12 13 14 15 16 17 18 19 20 21 22 23 24 25 26 27 28 29 30 31 32 33 34 35 36 37 38 39 40 41 42 43 44 45 46 47 48 49 50

000
ASUS43 KDTX 010301
RWRMI
MICHIGAN HOURLY REGIONAL WEATHER ROUNDUP
NATIONAL WEATHER SERVICE DETROIT/PONTIAC MI
1100 PM EDT THU JUL 31 2014

NOTE: "FAIR" INDICATES FEW OR NO CLOUDS BELOW 12,000 FEET WITH NO
SIGNIFICANT WEATHER AND/OR OBSTRUCTION TO VISIBILITY.

MIZ047>049-052>055-059>063-066>070-074>076-081>083-010400-
SOUTHEAST LOWER MICHIGAN

CITY           SKY/WX    TMP DP  RH WIND       PRES   REMARKS
ADRIAN         CLEAR     63  59  87 CALM      30.07R
ALMA           CLOUDY    65  60  84 SW3       30.03S
ANN ARBOR      CLEAR     63  58  83 W3        30.06R
BAD AXE        CLEAR     59  58  97 CALM      30.02R
CARO           CLEAR     63  61  96 CALM      30.02S
DETROIT CITY   CLEAR     74  58  57 W5        30.04R
DETROIT        PTCLDY    70  60  70 SW6       30.05R
FLINT          CLEAR     63  59  87 CALM      30.04R
GROSSE ILE     CLEAR     72  61  68 SW3       30.03S
HILLSDALE      CLEAR     60  59  97 CALM      30.08R
HOWELL         MOCLDY    65  59  82 CALM      30.05S

CITY           SKY/WX    TMP DP  RH WIND       PRES   REMARKS
JACKSON        CLEAR     63  59  87 CALM      30.06R
LAMBERTVILLE   CLEAR     64  61  88 CALM      30.07S
LANSING        CLOUDY    67  59  75 CALM      30.05R
LAPEER         FAIR      58  57  96 CALM      30.04S FOG
MASON          PTCLDY    63  59  88 CALM      30.06R
MONROE         CLEAR     66  61  82 CALM      30.04S
MT. CLEMENS    CLEAR     65  58  79 E5        30.03R
PONTIAC        CLEAR     68  59  73 CALM      30.05R
PORT HOPE        N/A     65  56  72 CALM      29.99S
PORT HURON     FOG       57  57 100 CALM      30.04S VSB 1/2
TRI CITIES     PTCLDY    67  61  81 SW6       30.03R
TROY           CLEAR     71  58  65 CALM      30.05S
SAGINAW HB     PTCLDY    66  63  88 SW7       30.02R
$$
MIZ043>046-050>051-056>058-064>065-071>073-077>080-010400-
SOUTHWEST LOWER MICHIGAN

CITY           SKY/WX    TMP DP  RH WIND       PRES   REMARKS
BATTLE CREEK   PTCLDY    66  60  81 CALM      30.06R
BENTON HARBOR  CLEAR     64  60  87 CALM      30.04R
BIG RAPIDS     PTCLDY    64  58  82 CALM      30.01F
COLDWATER      CLEAR     67  60  78 CALM      30.07R
FREMONT        LGT RAIN  64  62  93 S3        30.01F
HOLLAND        PTCLDY    67  59  75 S3        30.03S
GRAND RAPIDS   MOCLDY    67  62  84 S7        30.03S
IONIA          MOCLDY    68  59  73 CALM      30.03S
KALAMAZOO      CLEAR     68  59  73 SW3       30.06R
LUDINGTON      PTCLDY    67  60  80 CALM      30.01S
MARSHALL       CLEAR     61  57  89 CALM      30.06R
MOUNT PLEASANT CLOUDY    68  60  75 SW3       30.01S
MUSKEGON       PTCLDY    68  57  68 S6        30.01F
SOUTH HAVEN    CLEAR     64  62  94 CALM      30.04R
$$
MIZ016>042-010400-
NORTHERN LOWER MICHIGAN

CITY           SKY/WX    TMP DP  RH WIND       PRES   REMARKS
ALPENA         PTCLDY    63  56  78 CALM      30.00R
BEAVER ISLAND  CLEAR     58  58 100 CALM      29.99S FOG
BELLAIRE       CLOUDY    59  55  88 CALM      29.99R
CADILLAC       CLEAR     56  53  91 CALM      30.03S
CHARLEVOIX     CLEAR     64  62  94 CALM      30.02S
FRANKFORT      CLEAR     68  56  67 CALM      29.99F
GAYLORD        CLEAR     60  54  80 CALM      30.01S
GRAYLING       CLEAR     56  56  97 CALM      30.02R
HARBOR SPRINGS MOCLDY    63  57  79 CALM      29.99S
HOUGHTON LAKE  CLEAR     58  54  86 CALM      30.02R
MANISTEE       CLEAR     61  55  82 E5        30.00F
OSCODA         CLEAR     62  57  84 SW3       29.98S
PELLSTON       MOCLDY    61  56  83 CALM      29.99S
ROGERS CITY    PTCLDY    57  56  99 CALM      30.01R
TRAVERSE CITY  PTCLDY    64  53  67 S3        29.98R
$$
MIZ007>008-015-010400-
EASTERN UPPER MICHIGAN

CITY           SKY/WX    TMP DP  RH WIND       PRES   REMARKS
KINROSS        CLEAR     57  54  88 CALM      29.99R
MACKINAC ISLAN CLEAR     60  59  96 W5        29.98S
NEWBERRY       CLEAR     51  48  89 CALM      29.98R
S. S. MARIE    CLEAR     54  50  86 CALM      29.97F
$$
MIZ004>006-011>014-085-010400-
CENTRAL UPPER MICHIGAN

CITY           SKY/WX    TMP DP  RH WIND       PRES   REMARKS
MANISTIQUE     CLEAR     53  52  98 CALM      29.98S FOG
ESCANABA       CLEAR     61  52  72 CALM      29.98S
MENOMINEE      MOCLDY    63  57  82 CALM      29.97R
SAWYER-GWINN   CLEAR     58  51  78 CALM      30.00R
$$
MIZ001>003-009>011-084-010400-
WESTERN UPPER MICHIGAN

CITY           SKY/WX    TMP DP  RH WIND       PRES   REMARKS
IRON MOUNTAIN  CLEAR     57  49  74 CALM      29.98S
HOUGHTON       CLEAR     57  49  74 NW7       29.96R
COPPER HARBOR    N/A     55  48  77 NE3       29.97R
$$

ABBREVIATIONS USED IN REMARKS
   TC - TEMPERATURE IN CELSIUS
  WCI - WIND CHILL INDEX
   HX - HEAT INDEX
  VSB - VISIBILITY



USA.gov is the U.S. government's official web portal to all federal, state and local government web resources and services.